Regional Weather Roundup
Issued by NWS San Angelo, TX

Home | Current Version | Previous Version | Text Only | Print | Product List | Glossary On
Versions: 1 2 3 4 5 6 7 8 9 10 11 12 13 14 15 16 17 18 19 20 21 22 23 24 25 26 27 28 29 30 31 32 33 34 35 36 37 38 39 40 41 42 43 44 45 46 47 48 49 50
000
ASUS44 KSJT 200910
RWRSJT
WEST CENTRAL TEXAS REGIONAL WEATHER ROUNDUP
NATIONAL WEATHER SERVICE SAN ANGELO TX
400 AM CDT MON OCT 20 2014

NOTE: "FAIR" INDICATES FEW OR NO CLOUDS BELOW 12,000 FEET WITH NO
SIGNIFICANT WEATHER AND/OR OBSTRUCTIONS TO VISIBILITY.

TXZ049-054-064>066-071>073-076>078-098-099-113-114-127-128-139-140-
154-155-168>170-201000
...LOCATIONS ACROSS WEST CENTRAL TEXAS...

CITY           SKY/WX    TMP DP  RH WIND       PRES   REMARKS
SAN ANGELO     PTCLDY    60  55  83 E6        30.04F
ABILENE        MOCLDY    64  59  83 S8        30.05F
DYESS AFB      MOCLDY    63  59  88 S9        30.04S
JUNCTION       CLEAR     58  55  90 CALM      30.05S
SWEETWATER     MOCLDY    64  58  83 S9        30.09S
BROWNWOOD      PTCLDY    59  57  94 CALM      30.05F FOG
COLEMAN        MOSUNNY   60  60  98 CALM      30.06S
SONORA         CLEAR     63  54  72 CALM      30.08F
OZONA          FAIR      59  55  88 SE5       30.07S
BRADY          CLEAR     61  61 100 SE5       30.04F
$$

TEXAS PANHANDLE/OKLAHOMA PANHANDLE

CITY           SKY/WX    TMP DP  RH WIND       PRES   REMARKS
AMARILLO       CLEAR     55  54  96 SW9       30.09S FOG
BORGER         CLEAR     58  55  90 CALM      30.06F
CANADIAN       CLEAR     56  55  95 CALM      30.04S
DALHART        CLEAR     48  45  89 SW7       30.10F
DUMAS          SUNNY     55  53  94 SW10      30.08S
GUYMON         NOT AVBL
HEREFORD       SUNNY     51  51  99 SW7       30.11F FOG
PAMPA          SUNNY     59  56  92 SW10      30.07F
PERRYTON       CLEAR     56  54  91 W8        30.05S
$$

SOUTHERN PANHANDLE/SOUTH PLAINS/ROLLING PLAINS

CITY           SKY/WX    TMP DP  RH WIND       PRES   REMARKS
LUBBOCK        PTCLDY    56  53  90 CALM      30.09R
SNYDER         PTCLDY    60  56  88 SE7       30.07S
CHILDRESS      CLEAR     59  56  89 S5        30.05F
SEMINOLE       MOSUNNY   55  53  94 CALM      30.10S
$$

PERMIAN BASIN

CITY           SKY/WX    TMP DP  RH WIND       PRES   REMARKS
MIDLAND        MOCLDY    60  56  86 E5        30.06S
ODESSA         MOCLDY    60  56  86 E5        30.07R
WINK           CLOUDY    62  57  83 E5        30.04R
$$

FAR WEST/SOUTHWEST MOUNTAINS/TRANS PECOS

CITY           SKY/WX    TMP DP  RH WIND       PRES   REMARKS
ALPINE         PTSUNNY   61  53  75 SW10      30.16R
DRYDEN           N/A     64  62  93 NE7       29.99S
EL PASO        MOCLDY    62  53  72 NW6       30.07F
FORT STOCKTON  MOCLDY    64  56  75 S6        30.04S
GUADALUPE PASS CLOUDY    57  54  89 N3        30.15F
MARFA          CLOUDY    57  54  88 CALM      30.14S
PECOS          CLOUDY    61  56  84 E7        30.03S
$$

DALLAS/FORT WORTH METROPLEX

CITY           SKY/WX    TMP DP  RH WIND       PRES   REMARKS
DFW AIRPORT    MOCLDY    59  53  80 CALM      30.04S
FTW MEACHAM    CLEAR     63  56  78 CALM      30.04S
DAL-EXECUTIVE  PTCLDY    60  55  83 SE3       30.04S
GRAND PRAIRIE  CLEAR     63  56  79 CALM      30.06S
ADDISON        CLEAR     62  55  77 SE6       30.07R
MESQUITE       MOSUNNY   56  52  87 CALM      30.05S
LANCASTER      MOSUNNY   55  51  85 CALM      30.05F
$$

NORTH CENTRAL TEXAS

CITY           SKY/WX    TMP DP  RH WIND       PRES   REMARKS
SHRMAN/DENISON SUNNY     58  53  81 CALM      30.06S
GAINESVILLE    CLEAR     55  52  89 MISG      30.07S
BRIDGEPORT     MOSUNNY   55  55 100 CALM      30.07S
DENTON         CLEAR     56  54  93 CALM      30.05R
WAXAHACHIE     MOSUNNY   59  56  89 CALM      30.05F
GRANBURY       MOSUNNY   62  58  85 CALM      30.06S
$$

WESTERN NORTH TEXAS

CITY           SKY/WX    TMP DP  RH WIND       PRES   REMARKS
WICHITA FALLS  CLEAR     59  56  89 S8        30.04S
VERNON         SUNNY     61  57  88 S6        30.05S
BRECKENRIDGE   MOSUNNY   64  61  92 CALM      30.05S FOG
COMANCHE       CLEAR     60  60 100 CALM      30.06S FOG
$$

CENTRAL AND SOUTH CENTRAL TEXAS

CITY           SKY/WX    TMP DP  RH WIND       PRES   REMARKS
AUSTIN/BERGSTM PTCLDY    58  57  97 CALM      30.03S
WACO           CLEAR     57  56  96 CALM      30.05S
HILLSBORO      MOSUNNY   62  55  76 SE3       30.04F
TEMPLE         MOCLDY    61  55  82 SE5       30.04S
KILLEEN-GRAY   PTCLDY    64  61  88 CALM      30.04S
FORT HOOD      MOCLDY    63  60  90 CALM      30.04S
GEORGETOWN     PTCLDY    59  57  94 CALM      30.04S
LAGO VISTA     CLOUDY    67  63  85 CALM      30.05S
SAN MARCOS     CLEAR     61  54  77 CALM      30.03F
NEW BRAUNFELS  CLEAR     63  61  93 NE3       30.01F
RANDOLPH AFB   CLOUDY    67  63  87 E3        30.02F
SAN ANTONIO    CLOUDY    69  65  86 E5        30.02F
STINSON        PTCLDY    68  65  90 E3        30.00F
PLEASANTON     NOT AVBL
LA GRANGE      CLEAR     65  64  96 CALM      30.00S
GIDDINGS       SUNNY     61  59  92 CALM      30.06S FOG
$$

EAST TEXAS

CITY           SKY/WX    TMP DP  RH WIND       PRES   REMARKS
PARIS          CLEAR     52  43  71 SE5       30.06S
CLARKSVILLE    NOT AVBL
TYLER          PTCLDY    56  51  84 CALM      30.05S
LONGVIEW       CLEAR     51  49  92 CALM      30.05F
PALESTINE      SUNNY     60  55  83 CALM      30.05S
NACOGDOCHES    CLEAR     50  46  87 CALM      30.05F
$$

TEXAS HILL COUNTRY AND EDWARDS PLATEAU

CITY           SKY/WX    TMP DP  RH WIND       PRES   REMARKS
LLANO            N/A    N/A N/A N/A MISG        N/A
HORSESHOE BAY  FAIR      60  60 100 CALM      30.04S
KERRVILLE      PTCLDY    61  58  90 CALM      30.05S
FREDERICKSBRG  CLOUDY    60  58  94 CALM      30.05S
ROCKSPRINGS    PTSUNNY   63  57  82 CALM      30.07S
HONDO          MOCLDY    63  63 100 E5        30.03F
UVALDE         SUNNY     65  62  90 NE5       30.01F
DEL RIO        MOCLDY    69  61  75 E9        29.98S
$$

SOUTHEAST TEXAS

CITY           SKY/WX    TMP DP  RH WIND       PRES   REMARKS
COLLEGE STN    CLEAR     63  57  81 CALM      30.03S
CALDWELL       SUNNY     61  61 100 CALM      30.06S
CROCKETT       SUNNY     63  57  82 E3        30.06S
BRENHAM        PTCLDY    63  61  95 CALM      30.02F
HUNTSVILLE     CLEAR     59  56  89 CALM      30.03S
CONROE         CLEAR     59  56  89 CALM      30.03F
HOUSTON BUSH   PTCLDY    62  59  90 E7        30.01F
HOUSTON HOBBY  PTCLDY    66  61  84 E6        30.00F
PERLAND        CLEAR     65  61  87 NE5       30.01F
WHARTON        SUNNY     65  63  92 CALM      30.00F
$$

THE UPPER TEXAS COAST

CITY           SKY/WX    TMP DP  RH WIND       PRES   REMARKS
ORANGE         MOSUNNY   59  58  96 CALM      30.04F
PORT ARTHUR    PTCLDY    64  56  75 E6        30.01F
GALVESTON      PTCLDY    73  67  81 E9        30.00F
ANGLETON       CLEAR     64  63  96 N6        29.99F
BAY CITY         N/A     67  66  97 NE5       29.98F
$$

TEXAS COASTAL BEND, RIO GRANDE PLAINS DEEP SOUTH TEXAS

CITY           SKY/WX    TMP DP  RH WIND       PRES   REMARKS
VICTORIA       CLEAR     67  66  97 E7        29.98F FOG
BEEVILLE       FAIR      68  68 100 NE6       29.97S FOG
ROCKPORT       CLOUDY    73  69  87 VRB5      29.95F
PORT ARANSAS   PTSUNNY   77  70  78 E10       29.93F
PORT LAVACA    SUNNY     70  67  89 E10       29.97F
CORPUS CHRISTI MOCLDY    72  69  90 NE8       29.94F
KINGSVILLE NAS PTCLDY    71  70  96 NE3       29.93F
COTULLA        MOCLDY    70  64  81 E6        29.98S
LAREDO         CLEAR     68  66  93 CALM      29.98F
BROWNSVILLE    PTCLDY    72  69  90 CALM      29.91F
PORT ISABEL    MOCLDY    75  70  84 CALM      29.91F
HEBBRONVILLE   MOSUNNY   67  64  92 N3        29.97F
MCALLEN        PTCLDY    72  67  84 NE3       29.92F
WESLACO        PTCLDY    69  65  86 CALM      29.91F
FALFURRIAS     PTSUNNY   73  68  86 E6        29.93F
EDINBURG       MOSUNNY   70  65  86 CALM      29.92F
$$


USA.gov is the U.S. government's official web portal to all federal, state and local government web resources and services.